Location: Jefferson Observatory
(34.1602°N, 83.6058°W)
Time: 02:12:29
(UTC-05:00)

N. Korean satellite - Visible Passes

Search period start: 23 November 2017 00:00
Search period end: 03 December 2017 00:00
Orbit: 460 x 514 km, 97.2° (Epoch: 22 November)

Date Brightness Start Highest point End Pass type
(mag) Time Alt. Az. Time Alt. Az. Time Alt. Az.
23 Nov 10.2 06:18:08 10° ENE 06:19:43 12° E 06:21:19 10° ESE visible
23 Nov 6.7 18:22:15 10° SSE 18:25:37 46° ENE 18:29:03 10° N visible
24 Nov 7.7 17:59:28 10° SE 18:02:14 22° ENE 18:05:03 10° NNE visible
24 Nov 9.6 19:33:30 10° SW 19:35:42 16° W 19:37:56 10° NW visible
25 Nov 8.3 19:08:54 10° SSW 19:12:05 32° W 19:15:21 10° NNW visible
26 Nov 9.4 06:39:45 10° NE 06:42:53 24° E 06:45:58 10° SSE visible
26 Nov 6.7 18:45:03 10° S 18:48:33 76° W 18:52:09 10° NNW visible
27 Nov 10.2 06:17:40 10° ENE 06:19:15 12° E 06:20:50 10° ESE visible
27 Nov 6.7 18:21:42 10° SSE 18:25:05 46° ENE 18:28:34 10° N visible
28 Nov 7.7 17:58:55 10° SE 18:01:43 22° ENE 18:04:34 10° NNE visible
28 Nov 9.6 19:32:54 10° SW 19:35:10 16° W 19:37:27 10° NW visible
29 Nov 8.3 19:08:18 10° SSW 19:11:32 33° W 19:14:50 10° NNW visible
30 Nov 9.4 06:39:13 10° NE 06:42:20 24° E 06:45:26 10° SSE visible
30 Nov 6.7 18:44:26 10° S 18:47:58 76° WSW 18:51:37 10° NNW visible
01 Dec 10.1 06:17:10 10° ENE 06:18:41 12° E 06:20:13 10° ESE visible
01 Dec 6.8 18:21:05 10° SSE 18:24:30 46° ENE 18:28:00 10° N visible
02 Dec 7.7 17:58:15 10° SE 18:01:06 22° ENE 18:03:59 10° NNE visible
02 Dec 9.6 19:32:12 10° SW 19:34:32 16° W 19:36:55 10° NW visible
